Home   Weather   Providence   Past weeks

Flag for USA Past Weather in Providence, Rhode Island, USA — Yesterday and Last 2 Weeks

Now
52 °F

Sunny.


Feels Like: 50 °F
Forecast: 40 / 66 °F
Wind: 7 mph from South

Location: Green State Airport

Current Time: Apr 24, 2017 at 9:47:39 am

Latest Report: Apr 24, 2017 at 8:51 am


Visibility: 10 mi

Pressure: 30.19 "Hg

Humidity: 75%

Dew Point: 44 °F

Location of ProvidenceLocation

Past Weather in Providence — Graph

°F

Providence Temperature Yesterday

Maximum temperature yesterday: 61 °F (at 1:51 pm)
Minimum temperature yesterday: 43 °F (at 2:51 am)
Average temperature yesterday: 50 °F

High & Low Weather Summary for the Past Weeks

 TemperatureHumidityPressure
High86 °F (Apr 16, 3:51 pm)100% (Apr 21, 3:51 am)30.59 "Hg (Apr 21, 3:51 am)
Low36 °F (Apr 19, 5:30 am)17% (Apr 9, 11:51 am)29.70 "Hg (Apr 16, 6:51 pm)
Average53 °F65%30.15 "Hg
* Reported Apr 9 7:51 am — Apr 24 7:51 am, Providence, Weather by CustomWeather, © 2017

Note: Actual official high and low records may vary slightly from our data, if they occured in-between our weather recording intervals... More about our weather records

Advertising

Providence Weather History for the Previous 24 Hours

Scroll right to see more
 ConditionsComfort  
Time TempWeatherWind HumidityBarometerVisibility
7:51 am
Mon, Apr 24
48 °FScattered clouds.5 mph83%30.18 "Hg10 mi
6:51 am43 °FSunny.No wind97%30.16 "Hg10 mi
5:51 am39 °FClear.6 mph100%30.15 "Hg10 mi
4:51 am40 °FClear.6 mph97%30.14 "Hg10 mi
3:51 am40 °FClear.3 mph93%30.13 "Hg10 mi
2:51 am42 °FClear.3 mph92%30.13 "Hg10 mi
1:51 am43 °FClear.3 mph89%30.14 "Hg9 mi
12:51 am43 °FClear.5 mph89%30.14 "Hg10 mi
11:51 pm
Sun, Apr 23
45 °FClear.8 mph82%30.14 "Hg10 mi
10:51 pm45 °FPassing clouds.6 mph80%30.14 "Hg10 mi
9:51 pm47 °FPassing clouds.9 mph74%30.14 "Hg10 mi
8:51 pm48 °FPassing clouds.9 mph71%30.13 "Hg10 mi
7:51 pm50 °FPartly cloudy.12 mph66%30.10 "Hg10 mi
6:51 pm54 °FPartly sunny.12 mph59%30.09 "Hg10 mi
5:51 pm55 °FPassing clouds.12 mph64%30.08 "Hg10 mi
4:51 pm55 °FPartly sunny.14 mph62%30.07 "Hg10 mi
3:51 pm57 °FPassing clouds.16 mph55%30.06 "Hg10 mi
2:51 pm60 °FSunny.14 mph52%30.07 "Hg10 mi
1:51 pm61 °FSunny.No wind46%30.09 "Hg10 mi
12:51 pm59 °FSunny.No wind48%30.09 "Hg10 mi
11:51 am57 °FSunny.3 mph51%30.09 "Hg10 mi
10:51 am55 °FSunny.5 mph53%30.10 "Hg10 mi
9:51 am53 °FSunny.9 mph56%30.10 "Hg10 mi
Weather by CustomWeather, © 2017

See weather overviewHow to use our weather pages